Change the Weather History Date:

Tuesday, February 8, 2011

  Actual Average Record
Temperature  
Mean Temperature -4 °F -  
Max Temperature 3 °F 28 °F 51 °F (1999)
Min Temperature -11 °F 12 °F -23 °F (2001)
Degree Days  
Heating Degree Days 69    
Moisture  
Dew Point -11 °F    
Average Humidity 72    
Maximum Humidity 77    
Minimum Humidity 66    
Precipitation  
Precipitation 0.00 in - - ()
Sea Level Pressure  
Sea Level Pressure 30.43 in    
Wind  
Wind Speed 12 mph (NW)    
Max Wind Speed 14 mph    
Max Gust Speed 21 mph    
Visibility 10 miles    
Events      
Averages and records for this station are not official NWS values.
T = Trace of Precipitation, MM = Missing Value Source: NWS Daily Summary

Daily Weather History Graph

Daily Weather History Graph

Search for Another Location

Airport or City:

Trip Planner

Search our weather history database for the weather conditions in past years. The results will help you decide how hot, cold, wet, or windy it might be!

Date:

Astronomy

Feb. 08, 2011 Rise Set
Actual Time 7:24 AM CST 5:38 PM CST
Civil Twilight 6:54 AM CST 6:08 PM CST
Nautical Twilight 6:21 AM CST 6:41 PM CST
Astronomical Twilight 5:48 AM CST 7:15 PM CST
Moon 9:23 AM CST (2/8) 11:31 PM CST (2/8)
Length of Visible Light 11h 13m
Length of Day
10h 14m
Waxing Crescent, 26% of the Moon is Illuminated
Feb 8
Waxing Crescent
Feb 11
First Quarter
Feb 18
Full
Feb 24
Last Quarter
Mar 4
New

Hourly Weather History & Observations

Time (CST) Temp. Windchill Dew Point Humidity Pressure Visibility Wind Dir Wind Speed Gust Speed Precip Events Conditions
12:15 AM -5.8 °F -26.0 °F -13.0 °F 71% 30.31 in 10.0 mi NNW 13.8 mph 20.7 mph N/A   Clear
12:55 AM -5.8 °F -26.0 °F -13.0 °F 71% 30.32 in 10.0 mi NNW 13.8 mph - N/A   Clear
1:15 AM -5.8 °F -25.2 °F -13.0 °F 71% 30.33 in 10.0 mi NNW 12.7 mph - N/A   Clear
1:35 AM -7.6 °F -27.5 °F -13.0 °F 77% 30.34 in 10.0 mi NNW 12.7 mph 18.4 mph N/A   Clear
1:55 AM -7.6 °F -27.5 °F -13.0 °F 77% 30.35 in 10.0 mi NNW 12.7 mph - N/A   Clear
2:15 AM -7.6 °F -27.5 °F -13.0 °F 77% 30.36 in 10.0 mi NNW 12.7 mph - N/A   Clear
2:35 AM -7.6 °F -26.6 °F -14.8 °F 71% 30.37 in 10.0 mi NNW 11.5 mph - N/A   Clear
2:55 AM -7.6 °F -26.6 °F -14.8 °F 71% 30.38 in 10.0 mi NNW 11.5 mph - N/A   Clear
3:15 AM -7.6 °F -25.7 °F -14.8 °F 71% 30.38 in 10.0 mi NNW 10.4 mph - N/A   Clear
3:35 AM -7.6 °F -25.7 °F -14.8 °F 71% 30.38 in 10.0 mi NNW 10.4 mph - N/A   Clear
3:55 AM -7.6 °F -25.7 °F -14.8 °F 71% 30.39 in 10.0 mi NNW 10.4 mph - N/A   Clear
4:35 AM -9.4 °F -29.8 °F -14.8 °F 77% 30.39 in 10.0 mi NNW 12.7 mph - N/A   Clear
4:55 AM -9.4 °F -27.9 °F -16.6 °F 71% 30.40 in 10.0 mi NNW 10.4 mph - N/A   Clear
5:15 AM -9.4 °F -26.8 °F -16.6 °F 71% 30.41 in 10.0 mi North 9.2 mph - N/A   Clear
5:35 AM -9.4 °F -27.9 °F -16.6 °F 71% 30.41 in 10.0 mi North 10.4 mph - N/A   Clear
5:55 AM -9.4 °F -26.8 °F -16.6 °F 71% 30.42 in 10.0 mi NNW 9.2 mph - N/A   Clear
6:15 AM -9.4 °F -27.9 °F -16.6 °F 71% 30.42 in 10.0 mi NNW 10.4 mph - N/A   Clear
6:35 AM -11.2 °F -32.1 °F -16.6 °F 77% 30.42 in 10.0 mi North 12.7 mph - N/A   Clear
6:55 AM -11.2 °F -31.1 °F -16.6 °F 77% 30.43 in 10.0 mi North 11.5 mph - N/A   Clear
7:15 AM -11.2 °F -29.0 °F -16.6 °F 77% 30.44 in 10.0 mi NNW 9.2 mph - N/A   Clear
7:35 AM -11.2 °F -30.1 °F -16.6 °F 77% 30.45 in 10.0 mi NNW 10.4 mph - N/A   Clear
7:55 AM -9.4 °F -25.6 °F -16.6 °F 71% 30.47 in 10.0 mi NNW 8.1 mph - N/A   Clear
8:15 AM -9.4 °F -24.3 °F -16.6 °F 71% 30.47 in 10.0 mi NNW 6.9 mph - N/A   Clear
8:35 AM -9.4 °F -25.6 °F -16.6 °F 71% 30.47 in 10.0 mi North 8.1 mph - N/A   Clear
8:55 AM -7.6 °F -25.7 °F -14.8 °F 71% 30.47 in 10.0 mi North 10.4 mph - N/A   Clear
9:15 AM -7.6 °F -23.4 °F -14.8 °F 71% 30.48 in 10.0 mi NNW 8.1 mph - N/A   Scattered Clouds
9:35 AM -5.8 °F -22.4 °F -13.0 °F 71% 30.47 in 10.0 mi NNW 9.2 mph - N/A   Scattered Clouds
10:15 AM -5.8 °F -21.2 °F -13.0 °F 71% 30.50 in 10.0 mi NNW 8.1 mph - N/A   Scattered Clouds
10:35 AM -4.0 °F -20.2 °F -11.2 °F 71% 30.52 in 10.0 mi NW 9.2 mph - N/A   Clear
10:55 AM -2.2 °F -18.9 °F -9.4 °F 71% 30.53 in 10.0 mi WNW 10.4 mph - N/A   Scattered Clouds
11:15 AM -0.4 °F -16.7 °F -9.4 °F 66% 30.53 in 10.0 mi WNW 10.4 mph - N/A   Scattered Clouds
11:35 AM -0.4 °F -16.7 °F -7.6 °F 72% 30.52 in 10.0 mi WNW 10.4 mph - N/A   Scattered Clouds
11:55 AM 1.4 °F -14.5 °F -7.6 °F 66% 30.50 in 10.0 mi NW 10.4 mph - N/A   Scattered Clouds
12:15 PM 1.4 °F -16.9 °F -7.6 °F 66% 30.51 in 10.0 mi West 13.8 mph - N/A   Clear
12:35 PM 1.4 °F -16.1 °F -5.8 °F 72% 30.50 in 10.0 mi West 12.7 mph - N/A   Scattered Clouds
12:55 PM 1.4 °F -15.3 °F -5.8 °F 72% 30.49 in 10.0 mi West 11.5 mph - N/A   Scattered Clouds
1:15 PM 1.4 °F -16.9 °F -5.8 °F 72% 30.48 in 10.0 mi West 13.8 mph - N/A   Scattered Clouds
1:35 PM 1.4 °F -16.1 °F -5.8 °F 72% 30.47 in 10.0 mi West 12.7 mph - N/A   Scattered Clouds
1:55 PM 1.4 °F -15.3 °F -5.8 °F 72% 30.45 in 10.0 mi West 11.5 mph - N/A   Scattered Clouds
2:15 PM 1.4 °F -15.3 °F -5.8 °F 72% 30.43 in 10.0 mi West 11.5 mph - N/A   Clear
2:35 PM 1.4 °F -15.3 °F -5.8 °F 72% 30.43 in 10.0 mi West 11.5 mph - N/A   Clear
2:55 PM 1.4 °F -16.9 °F -5.8 °F 72% 30.43 in 10.0 mi West 13.8 mph - N/A   Clear
3:15 PM 3.2 °F -13.1 °F -5.8 °F 66% 30.42 in 10.0 mi WNW 11.5 mph - N/A   Clear
3:35 PM 1.4 °F -16.9 °F -5.8 °F 72% 30.42 in 10.0 mi West 13.8 mph - N/A   Scattered Clouds
3:55 PM 1.4 °F -15.3 °F -5.8 °F 72% 30.42 in 10.0 mi West 11.5 mph - N/A   Scattered Clouds
4:15 PM 1.4 °F -16.9 °F -5.8 °F 72% 30.42 in 10.0 mi West 13.8 mph - N/A   Scattered Clouds
4:35 PM 1.4 °F -16.1 °F -5.8 °F 72% 30.41 in 10.0 mi West 12.7 mph - N/A   Scattered Clouds
4:55 PM 1.4 °F -16.1 °F -7.6 °F 66% 30.41 in 10.0 mi West 12.7 mph - N/A   Scattered Clouds
5:15 PM -0.4 °F -17.6 °F -7.6 °F 72% 30.41 in 10.0 mi West 11.5 mph - N/A   Clear
5:35 PM -0.4 °F -16.7 °F -7.6 °F 72% 30.40 in 10.0 mi West 10.4 mph - N/A   Clear
5:55 PM -0.4 °F -15.7 °F -7.6 °F 72% 30.40 in 10.0 mi West 9.2 mph - N/A   Clear
6:15 PM -0.4 °F -16.7 °F -7.6 °F 72% 30.40 in 10.0 mi West 10.4 mph - N/A   Clear
6:35 PM -0.4 °F -20.5 °F -7.6 °F 72% 30.39 in 10.0 mi West 16.1 mph - N/A   Clear
6:55 PM -0.4 °F -19.2 °F -7.6 °F 72% 30.39 in 10.0 mi West 13.8 mph - N/A   Clear
7:15 PM -0.4 °F -19.2 °F -7.6 °F 72% 30.40 in 10.0 mi West 13.8 mph - N/A   Clear
7:35 PM -0.4 °F -18.4 °F -7.6 °F 72% 30.41 in 10.0 mi West 12.7 mph - N/A   Clear
7:55 PM -0.4 °F -17.6 °F -7.6 °F 72% 30.40 in 10.0 mi West 11.5 mph - N/A   Clear
8:15 PM -0.4 °F -19.9 °F -7.6 °F 72% 30.40 in 10.0 mi West 15.0 mph - N/A   Clear
8:35 PM -0.4 °F -17.6 °F -7.6 °F 72% 30.40 in 10.0 mi West 11.5 mph - N/A   Clear
8:55 PM -0.4 °F -19.9 °F -7.6 °F 72% 30.39 in 10.0 mi West 15.0 mph - N/A   Clear
9:15 PM -0.4 °F -22.3 °F -7.6 °F 72% 30.38 in 10.0 mi West 19.6 mph - N/A   Clear
9:35 PM -0.4 °F -20.5 °F -7.6 °F 72% 30.38 in 10.0 mi West 16.1 mph - N/A   Clear
9:55 PM -0.4 °F -22.3 °F -7.6 °F 72% 30.38 in 10.0 mi West 19.6 mph - N/A   Clear
10:15 PM -0.4 °F -19.9 °F -7.6 °F 72% 30.38 in 10.0 mi West 15.0 mph - N/A   Clear
10:35 PM -0.4 °F -21.7 °F -7.6 °F 72% 30.37 in 10.0 mi West 18.4 mph - N/A   Clear
10:55 PM -0.4 °F -21.7 °F -7.6 °F 72% 30.36 in 10.0 mi West 18.4 mph - N/A   Clear
11:15 PM -0.4 °F -21.2 °F -7.6 °F 72% 30.35 in 10.0 mi West 17.3 mph - N/A   Clear
11:35 PM -0.4 °F -21.2 °F -7.6 °F 72% 30.35 in 10.0 mi West 17.3 mph - N/A   Clear
11:55 PM -0.4 °F -21.2 °F -7.6 °F 72% 30.35 in 10.0 mi West 17.3 mph - N/A   Clear